FW5309 Weather Reports


time (UTC)temp
F
wind
direction
speed
knots
gust
knots
rain 1hr
in
rain 24hr
in
rain mn
in
humidity
%
barometer
mb
20260507214530 63 85 0.0 0.9 0.00 0.07 0.03 62 1008.9
20260507213036 63 69 0.0 0.0 0.00 0.07 0.03 61 1009.1
20260507211557 62 69 0.0 0.0 0.00 0.07 0.03 63 1009.0
20260507210046 63 68 0.9 5.2 0.00 0.07 0.03 61 1008.9
20260507204502 63 43 0.0 5.2 0.00 0.07 0.03 60 1008.9
20260507203006 63 33 0.0 7.8 0.00 0.07 0.03 60 1008.8
20260507201522 63 76 0.0 2.6 0.00 0.07 0.03 58 1009.1
20260507200014 62 56 0.0 0.9 0.00 0.07 0.03 64 1009.4
20260507194529 61 207 0.0 0.9 0.01 0.07 0.03 62 1009.9
20260507193031 61 207 0.0 0.0 0.01 0.07 0.03 68 1010.0
20260507191551 60 207 0.0 0.0 0.01 0.07 0.03 67 1010.0
20260507190049 60 208 0.0 0.0 0.01 0.07 0.03 74 1010.4
20260507184508 60 208 0.0 0.0 0.00 0.06 0.02 71 1010.4
20260507183010 59 208 0.0 0.0 0.00 0.06 0.02 72 1010.4
20260507181537 59 208 0.0 0.0 0.00 0.06 0.02 75 1010.4
20260507180032 59 208 0.0 0.0 0.01 0.06 0.02 76 1010.4
20260507174614 59 208 0.0 0.0 0.01 0.06 0.02 77 1010.4
20260507173051 58 208 0.0 0.0 0.01 0.06 0.02 74 1010.4
20260507171505 59 208 0.0 0.0 0.01 0.06 0.02 71 1010.7
20260507170058 59 209 0.0 0.0 0.00 0.05 0.01 68 1010.5
20260507170003 59 209 0.0 0.0 0.00 0.05 0.01 69 1010.5
20260507164510 60 198 0.0 3.5 0.00 0.05 0.01 68 1010.4
20260507163006 60 201 0.0 0.0 0.00 0.05 0.01 68 1010.4
20260507161521 60 201 0.0 0.9 0.00 0.05 0.01 67 1010.4
20260507160024 60 201 0.0 3.5 0.00 0.05 0.01 68 1010.7
20260507154542 60 197 0.0 0.9 0.00 0.05 0.01 68 1010.9
20260507153032 60 196 0.0 2.6 0.00 0.05 0.01 69 1010.7
20260507151600 61 195 0.0 3.5 0.00 0.05 0.01 69 1010.7
20260507150005 61 186 0.0 0.0 0.00 0.05 0.01 69 1010.4
20260507144528 61 172 0.0 0.9 0.00 0.05 0.01 69 1010.4
20260507143030 62 171 0.0 2.6 0.00 0.05 0.01 69 1010.3
20260507141614 62 170 0.0 2.6 0.00 0.06 0.01 70 1010.4
20260507140112 62 171 0.0 2.6 0.00 0.06 0.01 71 1010.2
20260507134513 62 170 0.0 0.0 0.00 0.06 0.01 73 1010.8
20260507133018 62 170 0.0 2.6 0.00 0.06 0.01 72 1010.6
20260507131612 61 172 0.0 2.6 0.00 0.06 0.01 74 1010.9
20260507130032 61 126 0.0 0.0 0.00 0.06 0.01 75 1010.4
20260507124554 61 126 0.0 0.0 0.00 0.06 0.01 75 1010.6
20260507123105 61 126 0.0 0.0 0.00 0.06 0.01 77 1010.7
20260507121516 60 126 0.0 0.9 0.00 0.06 0.01 78 1010.4
20260507120022 60 122 0.0 0.0 0.00 0.06 0.01 78 1010.4
20260507114538 60 122 0.0 0.9 0.00 0.06 0.01 79 1010.4
20260507113101 60 121 0.0 0.0 0.00 0.06 0.01 80 1010.0
20260507111548 60 121 0.0 0.0 0.00 0.06 0.01 81 1009.8
20260507110043 60 121 0.0 0.9 0.00 0.06 0.01 81 1009.8
20260507104602 60 121 0.0 0.9 0.00 0.06 0.01 81 1009.8
20260507103054 60 121 0.0 0.0 0.00 0.06 0.01 82 1009.7
20260507101523 60 119 0.0 0.0 0.00 0.06 0.01 81 1009.8
20260507100030 60 155 0.0 0.0 0.00 0.06 0.01 82 1009.6
20260507094528 61 155 0.0 2.6 0.00 0.06 0.01 82 1009.3
20260507093028 61 155 0.0 0.0 0.00 0.06 0.01 84 1009.8
20260507091552 61 155 0.0 0.0 0.00 0.06 0.01 84 1009.2
20260507090054 62 155 0.0 0.0 0.00 0.06 0.01 85 1009.2
20260507084539 62 155 0.0 0.0 0.00 0.06 0.01 85 1009.4
20260507083023 62 155 0.0 0.0 0.00 0.06 0.01 85 1009.2
20260507081538 62 155 0.0 0.0 0.00 0.06 0.01 85 1009.3
20260507080036 63 155 0.0 0.0 0.00 0.06 0.01 85 1009.6
20260507074554 63 155 0.0 0.0 0.00 0.06 0.01 85 1009.7
20260507073108 64 155 0.0 0.0 0.01 0.06 0.01 85 1009.5
20260507071518 64 155 0.0 0.0 0.01 0.06 0.01 86 1009.3
20260507070026 64 155 0.0 4.3 0.01 0.06 0.01 86 1009.1
20260507064545 64 169 0.0 3.5 0.01 0.06 0.01 86 1009.6
20260507063055 64 134 0.0 0.0 0.00 0.05 0.00 86 1009.1
20260507061514 64 134 0.0 0.0 0.00 0.05 0.00 86 1008.8
20260507060017 64 134 0.0 0.0 0.00 0.05 0.00 86 1009.6
20260507054532 64 134 0.0 0.0 0.00 0.05 0.00 86 1009.7
20260507053021 64 134 0.0 0.0 0.00 0.05 0.00 85 1009.7
20260507051548 64 56 0.0 0.0 0.00 0.05 0.00 85 1009.4
20260507050103 64 56 0.0 0.0 0.00 0.05 0.00 85 1009.2
20260507044518 64 56 0.0 0.0 0.00 0.05 0.00 85 1009.1
20260507043009 65 56 0.0 0.0 0.00 0.05 0.00 84 1009.3
20260507041526 65 56 0.0 0.0 0.00 0.05 0.05 84 1009.4
20260507040039 65 55 0.0 0.0 0.01 0.05 0.05 84 1009.4
20260507034602 66 55 0.0 0.0 0.01 0.05 0.05 82 1009.7
20260507033007 66 55 0.0 0.0 0.02 0.05 0.05 82 1010.7
20260507031525 66 55 0.0 0.0 0.04 0.05 0.05 81 1010.8
20260507030033 67 55 0.0 0.0 0.03 0.04 0.04 80 1010.4
20260507024548 67 55 0.0 4.3 0.03 0.04 0.04 78 1010.0
20260507023042 69 116 0.0 2.6 0.02 0.03 0.03 75 1010.6
20260507021605 69 62 0.0 8.7 0.00 0.01 0.01 71 1009.7
20260507020004 71 136 0.9 8.7 0.00 0.01 0.01 66 1009.6
20260507014522 71 35 0.0 16.5 0.00 0.01 0.01 64 1009.6
20260507013015 69 95 0.0 7.8 0.00 0.01 0.01 69 1009.5
20260507011532 68 345 0.0 0.9 0.00 0.01 0.01 73 1009.6
20260507010038 68 343 0.0 0.0 0.00 0.01 0.01 73 1009.6
20260507004538 69 343 0.0 0.0 0.00 0.01 0.01 72 1009.3
20260507003044 69 343 0.0 0.0 0.00 0.01 0.01 72 1009.1
20260507001605 69 343 0.0 3.5 0.00 0.01 0.01 71 1008.9
20260507000009 70 335 0.0 4.3 0.00 0.01 0.01 71 1008.9
20260506234548 70 336 0.0 5.2 0.00 0.01 0.01 70 1009.1
20260506233031 71 326 0.0 7.8 0.00 0.01 0.01 69 1009.1
20260506231555 71 330 0.0 1.7 0.00 0.01 0.01 67 1008.6
20260506230050 71 343 0.0 0.0 0.00 0.01 0.01 67 1009.0
20260506224511 72 343 0.0 0.0 0.00 0.01 0.01 66 1009.4
20260506223004 73 346 0.0 0.9 0.00 0.01 0.01 63 1009.2
20260506221518 76 350 0.0 3.5 0.00 0.01 0.01 56 1009.0
20260506220022 77 131 1.7 8.7 0.00 0.01 0.01 51 1008.9